Regional Weather Roundup
Issued by NWS Northern Indiana

Home | Current Version | Previous Version | Graphics & Text | Print | Product List | Glossary On
Versions: 1 2 3 4 5 6 7 8 9 10 11 12 13 14 15 16 17 18 19 20 21 22 23 24 25 26 27 28 29 30 31 32 33 34 35 36 37 38 39 40 41 42 43 44 45 46 47 48 49 50
000
ASUS43 KIWX 180500
RWRIWX

KIWX WEATHER ROUNDUP
NATIONAL WEATHER SERVICE NORTHERN INDIANA
100 AM EDT THU SEP 18 2014

NOTE: "FAIR" INDICATES FEW OR NO CLOUDS BELOW 12,000 FEET WITH NO
SIGNIFICANT WEATHER AND/OR OBSTRUCTIONS TO VISIBILITY.

* THESE STATIONS ARE NOT UNDER NWS QUALITY CONTROL. THEY ALSO MAY NOT
  REPORT WEATHER SUCH AS PRECIPITATION OR FOG.

INZ001>027-180600-
NORTHERN INDIANA

CITY           SKY/WX    TMP DP  RH WIND       PRES   REMARKS
VALPARAISO     CLEAR     50  46  86 CALM      30.04S
KNOX*          CLEAR     46  44  92 CALM      30.03S
SOUTH BEND     CLEAR     47  43  86 CALM      30.05R
GOSHEN         CLEAR     46  44  93 CALM      30.04S FOG
WARSAW*        CLEAR     45  45 100 CALM      30.04S
ANGOLA*        CLEAR     46  46 100 CALM      30.03S
FORT WAYNE     CLEAR     52  46  80 NW5       30.04R
PERU/GRISSOM   CLEAR     53  52  96 CALM      30.04R

$$
INZ028>050-180600-
CENTRAL INDIANA

CITY           SKY/WX    TMP DP  RH WIND       PRES   REMARKS
LAFAYETTE      CLEAR     51  50  96 CALM      30.04R
KOKOMO*        CLOUDY    52  46  82 CALM      30.04S
MUNCIE*        CLEAR     50  48  93 CALM      30.03R
INDIANAPOLIS   CLEAR     54  50  86 W3        30.02S

$$
MIZ043>046-050>051-056>058-064>065-071>073-077>080-180600-
SOUTHWEST LOWER MICHIGAN

CITY           SKY/WX    TMP DP  RH WIND       PRES   REMARKS
BATTLE CREEK   CLEAR     48  44  86 CALM      30.04S
BENTON HARBOR  CLEAR     44  43  96 CALM      30.04R FOG
COLDWATER*     CLEAR     47  46  97 CALM      30.04R
HILLSDALE*     CLEAR     45  45  99 CALM      30.04S
HOLLAND        CLEAR     47  44  90 CALM      30.04S
GRAND RAPIDS   CLEAR     48  44  86 CALM      30.04S
KALAMAZOO      CLEAR     46  44  93 CALM      30.04S FOG
STURGIS*       CLEAR     45  45 100 CALM      30.03S
THREE RIVERS*    N/A     46  44  93 CALM      30.04S

$$
OHZ001>008-015>018-024>025-180600-
NORTHWEST OHIO

CITY           SKY/WX    TMP DP  RH WIND       PRES   REMARKS
DEFIANCE       CLEAR     49  46  90 CALM      30.03S
FINDLAY        CLEAR     50  46  86 CALM      30.01S
TOLEDO EXPRESS CLEAR     49  47  93 CALM      30.02S
TOLEDO METCALF CLOUDY    55  47  74 CALM      30.02S
LIMA           CLEAR     50  47  89 CALM      30.02S

$$
&&


USA.gov is the U.S. government's official web portal to all federal, state and local government web resources and services.